Katta Gehege Affenhaus Messungen

Zurück zum Überblick

Zeitpunkt Temperatur Luftfeuchte
26.01.2020 22:38:25 18,2 C 40,0%
26.01.2020 22:31:23 18,3 C 40,0%
26.01.2020 22:24:20 18,2 C 40,0%
26.01.2020 22:17:19 18,1 C 40,0%
26.01.2020 22:10:16 18,1 C 40,0%
26.01.2020 22:03:13 18,3 C 40,0%
26.01.2020 21:56:12 18,4 C 40,0%
26.01.2020 21:49:10 18,5 C 40,0%
26.01.2020 21:42:08 18,4 C 40,0%
26.01.2020 21:35:05 18,2 C 40,0%
26.01.2020 21:28:04 18,3 C 40,0%
26.01.2020 21:21:03 18,5 C 40,0%
26.01.2020 21:14:00 18,8 C 39,0%
26.01.2020 21:06:59 18,8 C 39,0%
26.01.2020 20:59:58 18,7 C 39,0%
26.01.2020 20:52:57 18,6 C 39,0%
26.01.2020 20:45:56 18,4 C 40,0%
26.01.2020 20:38:55 18,4 C 40,0%
26.01.2020 20:31:52 18,5 C 39,0%
26.01.2020 20:24:51 18,7 C 39,0%
26.01.2020 20:17:47 18,8 C 39,0%
26.01.2020 20:10:47 18,7 C 39,0%
26.01.2020 20:03:44 18,6 C 39,0%
26.01.2020 19:56:41 18,8 C 39,0%
26.01.2020 19:49:39 19,0 C 39,0%
26.01.2020 19:42:36 19,2 C 39,0%
26.01.2020 19:35:35 19,2 C 39,0%
26.01.2020 19:28:32 19,3 C 39,0%
26.01.2020 19:21:30 19,2 C 39,0%
26.01.2020 19:14:29 19,2 C 39,0%
26.01.2020 19:07:26 19,1 C 39,0%
26.01.2020 19:00:25 19,1 C 39,0%
26.01.2020 18:53:25 19,3 C 39,0%
26.01.2020 18:46:23 19,5 C 39,0%
26.01.2020 18:39:22 19,6 C 39,0%
26.01.2020 18:32:19 19,6 C 39,0%
26.01.2020 18:25:15 19,5 C 39,0%
26.01.2020 18:18:15 19,4 C 39,0%
26.01.2020 18:11:13 19,3 C 39,0%
26.01.2020 18:04:12 19,3 C 39,0%
26.01.2020 17:57:12 19,5 C 39,0%
26.01.2020 17:50:10 19,6 C 38,0%
26.01.2020 17:43:06 19,8 C 38,0%
26.01.2020 17:36:06 19,7 C 38,0%
26.01.2020 17:29:04 19,6 C 38,0%
26.01.2020 17:22:02 19,5 C 39,0%
26.01.2020 17:15:01 19,4 C 39,0%
26.01.2020 17:07:58 19,4 C 39,0%
26.01.2020 17:00:56 19,6 C 38,0%
26.01.2020 16:53:53 19,8 C 38,0%
26.01.2020 16:46:52 19,9 C 38,0%
26.01.2020 16:39:50 19,8 C 38,0%
26.01.2020 16:32:49 19,7 C 38,0%
26.01.2020 16:25:48 19,6 C 39,0%
26.01.2020 16:18:47 19,5 C 39,0%
26.01.2020 16:11:44 19,5 C 38,0%
26.01.2020 16:04:42 19,6 C 38,0%
26.01.2020 15:57:40 19,8 C 38,0%
26.01.2020 15:50:39 19,9 C 38,0%
26.01.2020 15:43:36 19,8 C 38,0%
26.01.2020 15:36:33 19,6 C 38,0%
26.01.2020 15:29:32 19,5 C 38,0%
26.01.2020 15:22:29 19,3 C 38,0%
26.01.2020 15:15:27 19,3 C 38,0%
26.01.2020 15:08:24 19,4 C 38,0%
26.01.2020 15:01:23 19,5 C 38,0%
26.01.2020 14:54:22 19,6 C 38,0%
26.01.2020 14:47:20 19,6 C 38,0%
26.01.2020 14:40:18 19,4 C 38,0%
26.01.2020 14:33:17 19,3 C 38,0%
26.01.2020 14:26:16 19,1 C 38,0%
26.01.2020 14:19:12 19,0 C 38,0%
26.01.2020 14:12:11 19,1 C 38,0%
26.01.2020 14:05:08 19,2 C 38,0%
26.01.2020 14:03:24 19,3 C 38,0%
26.01.2020 13:51:03 19,3 C 38,0%
26.01.2020 13:44:02 19,1 C 38,0%
26.01.2020 13:37:01 18,9 C 38,0%
26.01.2020 13:35:17 18,8 C 38,0%
26.01.2020 13:22:58 18,7 C 38,0%
26.01.2020 13:15:56 18,7 C 38,0%
26.01.2020 13:08:55 18,9 C 38,0%
26.01.2020 13:01:54 18,9 C 38,0%
26.01.2020 12:54:53 18,9 C 38,0%
26.01.2020 12:47:50 18,8 C 38,0%
26.01.2020 12:40:47 18,6 C 38,0%
26.01.2020 12:33:46 18,4 C 38,0%
26.01.2020 12:26:45 18,3 C 38,0%
26.01.2020 12:19:44 18,2 C 38,0%
26.01.2020 12:12:42 18,3 C 38,0%
26.01.2020 12:05:39 18,5 C 38,0%
26.01.2020 11:58:36 18,7 C 37,0%
26.01.2020 11:51:34 18,6 C 37,0%
26.01.2020 11:44:33 18,5 C 37,0%
26.01.2020 11:37:31 18,4 C 37,0%
26.01.2020 11:30:30 18,3 C 37,0%
26.01.2020 11:23:29 18,2 C 37,0%
26.01.2020 11:16:28 18,1 C 37,0%
26.01.2020 11:09:25 18,1 C 37,0%
26.01.2020 11:02:23 18,0 C 37,0%
26.01.2020 10:55:19 17,9 C 37,0%
26.01.2020 10:48:18 17,9 C 37,0%
26.01.2020 10:41:16 18,1 C 37,0%
26.01.2020 10:34:13 18,3 C 37,0%
26.01.2020 10:27:13 18,3 C 36,0%
26.01.2020 10:20:09 18,3 C 36,0%
26.01.2020 10:13:07 18,2 C 36,0%
26.01.2020 10:06:05 18,2 C 36,0%
26.01.2020 09:59:03 18,2 C 36,0%
26.01.2020 09:52:01 18,1 C 36,0%
26.01.2020 09:45:00 18,1 C 36,0%
26.01.2020 09:38:00 18,1 C 36,0%
26.01.2020 09:30:59 18,0 C 37,0%
26.01.2020 09:23:59 18,0 C 37,0%
26.01.2020 09:16:58 17,9 C 37,0%
26.01.2020 09:09:56 17,9 C 37,0%
26.01.2020 09:02:54 18,0 C 36,0%
26.01.2020 08:55:53 18,3 C 36,0%
26.01.2020 08:48:51 18,4 C 36,0%
26.01.2020 08:41:48 18,4 C 36,0%
26.01.2020 08:34:46 18,4 C 36,0%
26.01.2020 08:27:43 18,4 C 36,0%
26.01.2020 08:20:41 18,4 C 36,0%
26.01.2020 08:13:40 18,4 C 36,0%
26.01.2020 08:06:37 18,3 C 36,0%
26.01.2020 07:59:35 18,3 C 36,0%
26.01.2020 07:52:33 18,3 C 36,0%
26.01.2020 07:45:32 18,3 C 36,0%
26.01.2020 07:38:30 18,3 C 36,0%
26.01.2020 07:31:29 18,3 C 36,0%
26.01.2020 07:24:27 18,3 C 36,0%
26.01.2020 07:17:24 18,3 C 36,0%
26.01.2020 07:10:22 18,3 C 36,0%
26.01.2020 07:03:21 18,3 C 36,0%
26.01.2020 06:56:18 18,3 C 36,0%
26.01.2020 06:49:15 18,3 C 36,0%
26.01.2020 06:42:14 18,3 C 36,0%
26.01.2020 06:35:13 18,3 C 36,0%
26.01.2020 06:28:11 18,3 C 36,0%
26.01.2020 06:21:09 18,3 C 36,0%
26.01.2020 06:14:07 18,3 C 36,0%
26.01.2020 06:07:04 18,3 C 36,0%
26.01.2020 06:00:03 18,3 C 36,0%
26.01.2020 05:53:01 18,3 C 36,0%
26.01.2020 05:45:59 18,3 C 36,0%
26.01.2020 05:38:58 18,3 C 36,0%
26.01.2020 05:31:57 18,3 C 36,0%
26.01.2020 05:24:53 18,3 C 36,0%
26.01.2020 05:17:51 18,3 C 36,0%
26.01.2020 05:10:50 18,3 C 36,0%
26.01.2020 05:03:49 18,2 C 36,0%
26.01.2020 04:56:47 18,2 C 36,0%
26.01.2020 04:49:44 18,2 C 36,0%
26.01.2020 04:42:43 18,2 C 36,0%
26.01.2020 04:35:40 18,2 C 36,0%
26.01.2020 04:28:37 18,2 C 36,0%
26.01.2020 04:21:36 18,2 C 36,0%
26.01.2020 04:14:36 18,2 C 36,0%
26.01.2020 04:07:33 18,2 C 36,0%
26.01.2020 04:00:31 18,2 C 36,0%
26.01.2020 03:53:28 18,2 C 36,0%
26.01.2020 03:46:26 18,2 C 36,0%
26.01.2020 03:39:24 18,2 C 36,0%
26.01.2020 03:32:21 18,3 C 36,0%
26.01.2020 03:25:20 18,3 C 36,0%
26.01.2020 03:18:19 18,3 C 36,0%
26.01.2020 03:11:15 18,3 C 36,0%
26.01.2020 03:04:14 18,2 C 36,0%
26.01.2020 02:57:11 18,2 C 36,0%
26.01.2020 02:50:10 18,2 C 36,0%
26.01.2020 02:43:06 18,2 C 37,0%
26.01.2020 02:36:04 18,2 C 37,0%
26.01.2020 02:29:04 18,2 C 37,0%
26.01.2020 02:22:02 18,2 C 37,0%
26.01.2020 02:14:59 18,2 C 37,0%
26.01.2020 02:07:57 18,2 C 37,0%
26.01.2020 02:00:54 18,3 C 37,0%
26.01.2020 01:53:50 18,2 C 37,0%
26.01.2020 01:46:48 18,2 C 37,0%
26.01.2020 01:39:48 18,2 C 37,0%
26.01.2020 01:32:46 18,2 C 37,0%
26.01.2020 01:25:44 18,2 C 37,0%
26.01.2020 01:18:41 18,2 C 37,0%
26.01.2020 01:11:38 18,2 C 37,0%
26.01.2020 01:04:36 18,1 C 37,0%
26.01.2020 00:57:34 18,1 C 37,0%
26.01.2020 00:50:33 18,2 C 37,0%
26.01.2020 00:43:31 18,1 C 37,0%
26.01.2020 00:36:29 18,1 C 37,0%
26.01.2020 00:29:28 18,1 C 37,0%
26.01.2020 00:22:27 18,2 C 37,0%
26.01.2020 00:15:25 18,2 C 37,0%
26.01.2020 00:08:24 18,1 C 37,0%
26.01.2020 00:01:22 18,1 C 37,0%